Time,TemperatureF,DewpointF,PressureIn,WindDirection,WindDirectionDegrees,WindSpeedMPH,WindSpeedGustMPH,Humidity,HourlyPrecipIn,Conditions,Clouds,dailyrainin,SoftwareType,DateUTC
2013-12-24 07:52:00,15.0,10.0,30.37,WSW,245,3.0,9.0,79,0.00,,,0.00,,2013-12-24 12:52:00,
2013-12-24 08:22:00,15.0,10.0,30.39,WNW,286,3.0,5.0,80,0.00,,,0.00,,2013-12-24 13:22:00,
2013-12-24 08:32:00,15.0,10.0,30.39,WNW,286,3.0,5.0,80,0.00,,,0.00,,2013-12-24 13:32:00,
2013-12-24 08:42:00,15.0,10.0,30.39,WNW,286,3.0,5.0,80,0.00,,,0.00,,2013-12-24 13:42:00,
2013-12-24 08:52:00,14.0,9.0,30.40,West,267,3.0,6.0,81,0.00,,,0.00,,2013-12-24 13:52:00,
2013-12-24 09:02:00,14.0,9.0,30.40,West,267,3.0,6.0,81,0.00,,,0.00,,2013-12-24 14:02:00,
2013-12-24 09:22:00,15.0,11.0,30.40,West,271,2.0,4.0,83,0.00,,,0.00,,2013-12-24 14:22:00,
2013-12-24 09:33:00,15.0,11.0,30.40,West,271,2.0,4.0,83,0.00,,,0.00,,2013-12-24 14:33:00,
2013-12-24 09:42:00,15.0,11.0,30.40,West,271,2.0,4.0,83,0.00,,,0.00,,2013-12-24 14:42:00,
2013-12-24 09:52:00,15.0,11.0,30.42,West,273,2.0,4.0,83,0.00,,,0.00,,2013-12-24 14:52:00,
2013-12-24 10:02:00,15.0,11.0,30.42,West,273,2.0,4.0,83,0.00,,,0.00,,2013-12-24 15:02:00,
2013-12-24 10:22:00,15.0,9.0,30.43,WSW,238,4.0,10.0,76,0.00,,,0.00,,2013-12-24 15:22:00,
2013-12-24 10:33:00,15.0,9.0,30.43,WSW,238,4.0,10.0,76,0.00,,,0.00,,2013-12-24 15:33:00,
2013-12-24 10:54:00,15.0,8.0,30.45,WSW,242,2.0,5.0,74,0.00,,,0.00,,2013-12-24 15:54:00,
2013-12-24 11:03:00,15.0,8.0,30.45,WSW,242,2.0,5.0,74,0.00,,,0.00,,2013-12-24 16:03:00,
2013-12-24 11:23:00,16.0,8.0,30.45,WSW,252,1.0,8.0,71,0.00,,,0.00,,2013-12-24 16:23:00,
2013-12-24 11:33:00,16.0,8.0,30.45,WSW,252,1.0,8.0,71,0.00,,,0.00,,2013-12-24 16:33:00,
2013-12-24 11:43:00,16.0,8.0,30.45,WSW,252,1.0,8.0,71,0.00,,,0.00,,2013-12-24 16:43:00,
2013-12-24 11:53:00,18.0,8.0,30.44,West,267,4.0,8.0,65,0.00,,,0.00,,2013-12-24 16:53:00,
2013-12-24 12:02:00,18.0,8.0,30.44,West,267,4.0,8.0,65,0.00,,,0.00,,2013-12-24 17:02:00,
2013-12-24 12:22:00,19.0,8.0,30.43,West,268,3.0,10.0,61,0.00,,,0.00,,2013-12-24 17:22:00,
2013-12-24 12:33:00,19.0,8.0,30.43,West,268,3.0,10.0,61,0.00,,,0.00,,2013-12-24 17:33:00,
2013-12-24 12:52:00,20.0,9.0,30.44,West,261,1.0,8.0,61,0.00,,,0.00,,2013-12-24 17:52:00,
2013-12-24 13:02:00,20.0,9.0,30.44,West,261,1.0,8.0,61,0.00,,,0.00,,2013-12-24 18:02:00,
2013-12-24 13:22:00,20.0,7.0,30.43,West,266,3.0,11.0,57,0.00,,,0.00,,2013-12-24 18:22:00,
2013-12-24 13:32:00,20.0,7.0,30.43,West,266,3.0,11.0,57,0.00,,,0.00,,2013-12-24 18:32:00,
2013-12-24 13:52:00,21.0,8.0,30.44,West,278,2.0,8.0,56,0.00,,,0.00,,2013-12-24 18:52:00,
2013-12-24 14:01:00,21.0,8.0,30.44,West,278,2.0,8.0,56,0.00,,,0.00,,2013-12-24 19:01:00,
2013-12-24 14:22:00,21.0,7.0,30.44,West,270,3.0,9.0,55,0.00,,,0.00,,2013-12-24 19:22:00,
2013-12-24 14:32:00,21.0,7.0,30.44,West,270,3.0,9.0,55,0.00,,,0.00,,2013-12-24 19:32:00,
2013-12-24 14:52:00,21.0,8.0,30.45,North,355,1.0,6.0,56,0.00,,,0.00,,2013-12-24 19:52:00,
2013-12-24 15:01:00,21.0,8.0,30.45,North,355,1.0,6.0,56,0.00,,,0.00,,2013-12-24 20:01:00,
2013-12-24 15:22:00,22.0,8.0,30.46,SW,232,1.0,5.0,55,0.00,,,0.00,,2013-12-24 20:22:00,
2013-12-24 15:32:00,22.0,8.0,30.46,SW,232,1.0,5.0,55,0.00,,,0.00,,2013-12-24 20:32:00,
2013-12-24 15:42:00,22.0,8.0,30.46,SW,232,1.0,5.0,55,0.00,,,0.00,,2013-12-24 20:42:00,
2013-12-24 15:52:00,21.0,8.0,30.48,WNW,289,1.0,7.0,56,0.00,,,0.00,,2013-12-24 20:52:00,
2013-12-24 16:02:00,21.0,8.0,30.48,WNW,289,1.0,7.0,56,0.00,,,0.00,,2013-12-24 21:02:00,
2013-12-24 16:22:00,21.0,9.0,30.49,SW,234,2.0,8.0,58,0.00,,,0.00,,2013-12-24 21:22:00,
2013-12-24 16:33:00,21.0,9.0,30.49,SW,234,2.0,8.0,58,0.00,,,0.00,,2013-12-24 21:33:00,
2013-12-24 16:43:00,21.0,9.0,30.49,SW,234,2.0,8.0,58,0.00,,,0.00,,2013-12-24 21:43:00,
2013-12-24 16:53:00,20.0,8.0,30.50,West,280,0.0,3.0,60,0.00,,,0.00,,2013-12-24 21:53:00,
2013-12-24 17:03:00,20.0,8.0,30.50,West,280,0.0,3.0,60,0.00,,,0.00,,2013-12-24 22:03:00,
2013-12-24 17:23:00,19.0,8.0,30.51,West,264,0.0,1.0,62,0.00,,,0.00,,2013-12-24 22:23:00,
2013-12-24 17:33:00,19.0,8.0,30.51,West,264,0.0,1.0,62,0.00,,,0.00,,2013-12-24 22:33:00,
2013-12-24 17:53:00,18.0,8.0,30.51,West,264,0.0,0.0,64,0.00,,,0.00,,2013-12-24 22:53:00,
2013-12-24 18:02:00,18.0,8.0,30.51,West,264,0.0,0.0,64,0.00,,,0.00,,2013-12-24 23:02:00,
2013-12-24 18:22:00,18.0,9.0,30.53,West,264,1.0,4.0,67,0.00,,,0.00,,2013-12-24 23:22:00,
2013-12-24 18:33:00,18.0,9.0,30.53,West,264,1.0,4.0,67,0.00,,,0.00,,2013-12-24 23:33:00,
2013-12-24 18:53:00,17.0,8.0,30.54,West,265,1.0,4.0,66,0.00,,,0.00,,2013-12-24 23:53:00,
2013-12-24 19:02:00,17.0,8.0,30.54,West,265,1.0,4.0,66,0.00,,,0.00,,2013-12-25 00:02:00,
2013-12-24 19:22:00,17.0,8.0,30.54,West,265,0.0,2.0,67,0.00,,,0.00,,2013-12-25 00:22:00,
2013-12-24 19:32:00,17.0,8.0,30.54,West,265,0.0,2.0,67,0.00,,,0.00,,2013-12-25 00:32:00,
2013-12-24 19:52:00,16.0,8.0,30.54,West,265,0.0,0.0,69,0.00,,,0.00,,2013-12-25 00:52:00,
2013-12-24 20:02:00,16.0,8.0,30.54,West,265,0.0,0.0,69,0.00,,,0.00,,2013-12-25 01:02:00,
2013-12-24 20:22:00,15.0,7.0,30.55,West,265,0.0,0.0,69,0.00,,,0.00,,2013-12-25 01:22:00,
2013-12-24 20:32:00,15.0,7.0,30.55,West,265,0.0,0.0,69,0.00,,,0.00,,2013-12-25 01:32:00,
2013-12-24 20:52:00,15.0,8.0,30.54,West,265,0.0,0.0,72,0.00,,,0.00,,2013-12-25 01:52:00,
2013-12-24 21:01:00,15.0,8.0,30.54,West,265,0.0,0.0,72,0.00,,,0.00,,2013-12-25 02:01:00,
2013-12-24 21:22:00,14.0,8.0,30.53,West,265,0.0,0.0,75,0.00,,,0.00,,2013-12-25 02:22:00,
2013-12-24 21:32:00,14.0,8.0,30.53,West,265,0.0,0.0,75,0.00,,,0.00,,2013-12-25 02:32:00,
2013-12-24 21:53:00,14.0,9.0,30.52,West,265,0.0,0.0,79,0.00,,,0.00,,2013-12-25 02:53:00,
2013-12-24 22:02:00,14.0,9.0,30.52,West,265,0.0,0.0,79,0.00,,,0.00,,2013-12-25 03:02:00,
2013-12-24 22:22:00,13.0,8.0,30.53,West,265,0.0,0.0,80,0.00,,,0.00,,2013-12-25 03:22:00,
2013-12-24 22:33:00,13.0,8.0,30.53,West,265,0.0,0.0,80,0.00,,,0.00,,2013-12-25 03:33:00,
2013-12-24 22:43:00,13.0,8.0,30.53,West,265,0.0,0.0,80,0.00,,,0.00,,2013-12-25 03:43:00,
2013-12-24 22:53:00,13.0,8.0,30.53,West,265,0.0,0.0,80,0.00,,,0.00,,2013-12-25 03:53:00,